Weather History for K6R3 - April, 2014

Change the Weather History Date:

Tuesday, April 1, 2014

  Actual Average (KCXO) Record (KCXO)
Temperature  
Mean Temperature 72 °F -  
Max Temperature 81 °F 73 °F 87 °F (2008)
Min Temperature 63 °F 53 °F 41 °F (1998)
Cooling Degree Days 7    
Growing Degree Days 22 (Base 50)    
Moisture  
Dew Point 66 °F    
Average Humidity 89    
Maximum Humidity 97    
Minimum Humidity 68    
Precipitation  
Precipitation 0.00 in - - ()
Sea Level Pressure  
Sea Level Pressure 29.99 in    
Wind  
Wind Speed 3 mph (SSE)    
Max Wind Speed 15 mph    
Max Gust Speed 21 mph    
Visibility 6 miles    
Events Rain    
Averages and records for this station are not official NWS values.
T = Trace of Precipitation, MM = Missing Value Source: NWS Daily Summary

Daily Weather History Graph

Daily Weather History Graph

Search for Another Location

Airport or City:

Trip Planner

Search our weather history database for the weather conditions in past years. The results will help you decide how hot, cold, wet, or windy it might be!

Date:

Astronomy

Apr. 01, 2014 Rise Set
Actual Time 7:09 AM CDT 7:38 PM CDT
Civil Twilight 6:45 AM CDT 8:03 PM CDT
Nautical Twilight 6:16 AM CDT 8:31 PM CDT
Astronomical Twilight 5:47 AM CDT 9:00 PM CDT
Moon 8:20 AM CDT (4/1) 9:52 PM CDT (4/1)
Length of Visible Light 13h 18m
Length of Day
12h 29m
Waxing Crescent, 5% of the Moon is Illuminated
Apr 1
Waxing Crescent
Apr 7
First Quarter
Apr 15
Full
Apr 22
Last Quarter
Apr 29
New

Hourly Weather History & Observations

Time (CDT) Temp. Heat Index Dew Point Humidity Pressure Visibility Wind Dir Wind Speed Gust Speed Precip Events Conditions
12:15 AM 63.9 °F - 62.2 °F 94% 30.03 in 7.0 mi Calm Calm - N/A   Overcast
12:35 AM 63.7 °F - 62.1 °F 94% 30.03 in 7.0 mi Calm Calm - N/A   Overcast
1:15 AM 63.5 °F - 62.2 °F 96% 30.02 in 7.0 mi Calm Calm - N/A   Overcast
1:35 AM 63.5 °F - 62.4 °F 96% 30.02 in 7.0 mi Calm Calm - N/A   Overcast
1:55 AM 63.7 °F - 62.6 °F 96% 30.02 in 7.0 mi Calm Calm - N/A   Overcast
2:15 AM 63.9 °F - 62.6 °F 96% 30.02 in 7.0 mi Calm Calm - N/A   Overcast
2:35 AM 63.9 °F - 62.6 °F 96% 30.02 in 7.0 mi Calm Calm - N/A   Overcast
2:55 AM 64.0 °F - 62.8 °F 96% 30.01 in 5.0 mi Calm Calm - N/A   Overcast
3:15 AM 63.7 °F - 62.6 °F 96% 30.00 in 5.0 mi SE 3.5 mph - N/A   Overcast
3:35 AM 64.0 °F - 63.1 °F 97% 30.00 in 4.0 mi SE 3.5 mph - N/A   Overcast
3:55 AM 64.4 °F - 63.5 °F 97% 30.00 in 5.0 mi Calm Calm - N/A   Overcast
4:15 AM 64.4 °F - 63.5 °F 97% 30.00 in 5.0 mi Calm Calm - N/A   Overcast
4:35 AM 64.6 °F - 63.7 °F 97% 30.00 in 5.0 mi Calm Calm - N/A   Overcast
4:55 AM 64.8 °F - 63.9 °F 97% 29.99 in 5.0 mi Calm Calm - N/A   Overcast
5:15 AM 64.8 °F - 63.9 °F 97% 30.00 in 5.0 mi Calm Calm - N/A   Overcast
5:35 AM 64.9 °F - 64.0 °F 97% 30.00 in 5.0 mi Calm Calm - N/A   Overcast
5:55 AM 64.9 °F - 64.0 °F 97% 30.00 in 5.0 mi Calm Calm - N/A   Overcast
6:15 AM 65.1 °F - 64.2 °F 97% 30.00 in 5.0 mi Calm Calm - N/A   Overcast
6:35 AM 65.3 °F - 64.4 °F 97% 30.00 in 5.0 mi Calm Calm - N/A   Overcast
6:55 AM 65.3 °F - 64.4 °F 97% 30.00 in 5.0 mi SE 3.5 mph - N/A   Overcast
7:15 AM 65.5 °F - 64.6 °F 97% 30.00 in 4.0 mi SSE 4.6 mph - N/A   Overcast
7:35 AM 65.7 °F - 64.8 °F 97% 30.00 in 5.0 mi SSE 4.6 mph - N/A   Overcast
7:55 AM 66.2 °F - 64.9 °F 96% 30.00 in 7.0 mi South 4.6 mph - N/A   Overcast
8:15 AM 66.6 °F - 65.5 °F 96% 30.01 in 7.0 mi SSE 6.9 mph - N/A   Overcast
8:35 AM 67.1 °F - 65.8 °F 96% 30.02 in 7.0 mi SSE 5.8 mph - N/A   Overcast
8:55 AM 68.4 °F - 66.4 °F 93% 30.02 in 7.0 mi SSE 3.5 mph - N/A   Overcast
9:15 AM 68.4 °F - 66.2 °F 93% 30.02 in 7.0 mi SSE 3.5 mph - N/A   Overcast
9:35 AM 68.4 °F - 66.4 °F 93% 30.03 in 7.0 mi SSE 4.6 mph - N/A   Overcast
9:55 AM 68.4 °F - 66.4 °F 93% 30.03 in 7.0 mi Calm Calm - N/A   Overcast
10:15 AM 68.9 °F - 66.7 °F 93% 30.03 in 7.0 mi SSE 3.5 mph - N/A   Overcast
10:35 AM 68.9 °F - 66.7 °F 93% 30.04 in 5.0 mi South 5.8 mph - N/A   Overcast
10:55 AM 68.9 °F - 67.1 °F 94% 30.04 in 3.0 mi South 5.8 mph - N/A Rain Rain
11:15 AM 68.9 °F - 67.5 °F 95% 30.05 in 2.5 mi Calm Calm - N/A Rain Light Rain
11:35 AM 68.9 °F - 67.6 °F 96% 30.05 in 3.0 mi South 4.6 mph - N/A   Overcast
11:55 AM 69.3 °F - 68.0 °F 96% 30.05 in 3.0 mi SSE 3.5 mph - N/A   Overcast
12:15 PM 69.8 °F - 68.4 °F 95% 30.04 in 4.0 mi Calm Calm - N/A   Overcast
12:35 PM 70.9 °F - 68.7 °F 93% 30.03 in 5.0 mi Calm Calm - N/A   Overcast
12:55 PM 72.7 °F - 68.9 °F 88% 30.03 in 5.0 mi SSE 4.6 mph - N/A   Overcast
1:15 PM 72.9 °F - 68.9 °F 87% 30.02 in 7.0 mi South 8.1 mph - N/A   Overcast
1:35 PM 75.2 °F - 69.6 °F 83% 30.02 in 5.0 mi South 8.1 mph - N/A   Haze
1:55 PM 76.3 °F - 69.6 °F 80% 30.01 in 5.0 mi South 6.9 mph - N/A   Haze
2:15 PM 78.1 °F - 70.3 °F 77% 30.01 in 5.0 mi South 6.9 mph - N/A   Haze
2:35 PM 80.4 °F 84.1 °F 70.9 °F 73% 30.00 in 4.0 mi South 5.8 mph - N/A   Haze
2:55 PM 78.1 °F - 69.8 °F 76% 29.99 in 7.0 mi ESE 4.6 mph - N/A   Overcast
3:15 PM 80.6 °F 84.2 °F 70.7 °F 72% 29.98 in 7.0 mi SSE 5.8 mph - N/A   Mostly Cloudy
3:35 PM 80.4 °F 83.8 °F 70.3 °F 71% 29.97 in 7.0 mi SE 6.9 mph - N/A   Mostly Cloudy
3:55 PM 81.5 °F 85.1 °F 70.2 °F 68% 29.96 in 7.0 mi SSE 8.1 mph 17.3 mph N/A   Mostly Cloudy
4:15 PM 79.2 °F - 69.8 °F 73% 29.95 in 7.0 mi South 15.0 mph 20.7 mph N/A   Mostly Cloudy
4:35 PM 79.2 °F - 69.4 °F 72% 29.95 in 7.0 mi South 10.4 mph 18.4 mph N/A   Mostly Cloudy
4:55 PM 79.7 °F - 69.6 °F 71% 29.95 in 7.0 mi SSE 9.2 mph 16.1 mph N/A   Mostly Cloudy
5:15 PM 77.4 °F - 68.5 °F 74% 29.95 in 7.0 mi SSE 8.1 mph 17.3 mph N/A   Mostly Cloudy
5:35 PM 77.0 °F - 68.2 °F 74% 29.95 in 7.0 mi SSE 8.1 mph 17.3 mph N/A   Mostly Cloudy
5:55 PM 76.5 °F - 68.0 °F 75% 29.95 in 7.0 mi SSE 6.9 mph - N/A   Overcast
6:15 PM 75.4 °F - 67.6 °F 77% 29.96 in 7.0 mi SSE 6.9 mph - N/A   Overcast
6:35 PM 75.0 °F - 67.1 °F 76% 29.95 in 7.0 mi South 9.2 mph 18.4 mph N/A   Overcast
6:55 PM 74.3 °F - 66.6 °F 77% 29.96 in 5.0 mi South 11.5 mph 19.6 mph N/A   Haze
7:15 PM 73.6 °F - 66.6 °F 79% 29.96 in 7.0 mi South 11.5 mph 20.7 mph N/A   Overcast
7:35 PM 72.7 °F - 66.6 °F 81% 29.96 in 7.0 mi SSE 8.1 mph - N/A   Overcast
7:55 PM 72.0 °F - 66.9 °F 84% 29.96 in 10.0 mi SSE 9.2 mph - N/A   Overcast
8:15 PM 71.6 °F - 66.6 °F 84% 29.95 in 7.0 mi SSE 6.9 mph - N/A   Overcast
8:35 PM 70.7 °F - 66.6 °F 87% 29.96 in 7.0 mi SSE 3.5 mph - N/A   Overcast
8:55 PM 69.6 °F - 66.4 °F 89% 29.96 in 7.0 mi Calm Calm - N/A   Mostly Cloudy
9:15 PM 69.1 °F - 66.4 °F 91% 29.96 in 7.0 mi SSE 4.6 mph - N/A   Clear
9:35 PM 68.9 °F - 66.4 °F 92% 29.97 in 7.0 mi SSE 3.5 mph - N/A   Mostly Cloudy
9:55 PM 68.9 °F - 66.6 °F 92% 29.96 in 7.0 mi Calm Calm - N/A   Overcast
10:15 PM 68.9 °F - 66.2 °F 91% 29.97 in 7.0 mi SSE 4.6 mph - N/A   Mostly Cloudy
10:35 PM 68.2 °F - 65.8 °F 92% 29.96 in 7.0 mi SSE 3.5 mph - N/A   Scattered Clouds
10:55 PM 67.5 °F - 65.7 °F 94% 29.97 in 7.0 mi SSE 3.5 mph - N/A   Scattered Clouds
11:15 PM 67.5 °F - 65.7 °F 94% 29.96 in 7.0 mi SSE 3.5 mph - N/A   Mostly Cloudy
11:35 PM 67.3 °F - 65.3 °F 93% 29.96 in 7.0 mi Calm Calm - N/A   Overcast
11:55 PM 67.5 °F - 65.7 °F 94% 29.97 in 7.0 mi SSE 3.5 mph - N/A   Overcast